Weather History for KPHX - February, 2013

Change the Weather History Date:

Monday, February 18, 2013

  Actual Average Record
Temperature  
Mean Temperature 62 °F 60 °F  
Max Temperature 76 °F 71 °F 86 °F (1977)
Min Temperature 47 °F 49 °F 29 °F (1964)
Degree Days  
Heating Degree Days 3 5  
Month to date heating degree days 108 115  
Since 1 July heating degree days 740 785  
Cooling Degree Days 0 1  
Month to date cooling degree days 3 1  
Year to date cooling degree days 8 3  
Growing Degree Days 10 (Base 50)    
Moisture  
Dew Point 22 °F    
Average Humidity 28    
Maximum Humidity 46    
Minimum Humidity 9    
Precipitation  
Precipitation 0.00 in 0.03 in 0.72 in (1917)
Month to date precipitation 0.08 0.54  
Year to date precipitation 1.47 1.45  
Snow  
Snow 0.00 in - - ()
Month to date snowfall 0.0  
Year to date snowfall 0.0  
Since 1 July snowfall 0.0  
Snow Depth 0.00 in    
Sea Level Pressure  
Sea Level Pressure 29.92 in    
Wind  
Wind Speed 5 mph (East)    
Max Wind Speed 12 mph    
Max Gust Speed 13 mph    
Visibility 10 miles    
Events      
T = Trace of Precipitation, MM = Missing Value Source: NWS Daily Summary

Daily Weather History Graph

Daily Weather History Graph

Search for Another Location

Airport or City:

Trip Planner

Search our weather history database for the weather conditions in past years. The results will help you decide how hot, cold, wet, or windy it might be!

Date:

Astronomy

Feb. 18, 2013 Rise Set
Actual Time 7:08 AM MST 6:15 PM MST
Civil Twilight 6:43 AM MST 6:41 PM MST
Nautical Twilight 6:14 AM MST 7:10 PM MST
Astronomical Twilight 5:45 AM MST 7:38 PM MST
Moon 12:12 PM MST (2/18) 1:43 AM MST (2/18)
Length of Visible Light 11h 57m
Length of Day
11h 07m
First Quarter, 59% of the Moon is Illuminated
Feb 18
First Quarter
Feb 25
Full
Mar 4
Last Quarter
Mar 11
New
Mar 19
First Quarter

Hourly Weather History & Observations

Time (MST) Temp. Dew Point Humidity Pressure Visibility Wind Dir Wind Speed Gust Speed Precip Events Conditions
12:51 AM 55.4 °F 24.8 °F 31% 29.92 in 10.0 mi East 6.9 mph - N/A   Clear
1:51 AM 54.0 °F 26.1 °F 34% 29.90 in 10.0 mi East 3.5 mph - N/A   Clear
2:51 AM 50.0 °F 27.0 °F 41% 29.91 in 10.0 mi East 5.8 mph - N/A   Clear
3:51 AM 50.0 °F 26.1 °F 39% 29.92 in 10.0 mi East 5.8 mph - N/A   Clear
4:51 AM 48.9 °F 26.1 °F 41% 29.93 in 10.0 mi East 8.1 mph - N/A   Clear
5:51 AM 48.0 °F 27.0 °F 44% 29.94 in 10.0 mi East 9.2 mph - N/A   Clear
6:51 AM 48.0 °F 28.0 °F 46% 29.96 in 10.0 mi East 8.1 mph - N/A   Partly Cloudy
7:51 AM 50.0 °F 24.1 °F 36% 30.00 in 10.0 mi East 10.4 mph - N/A   Partly Cloudy
8:51 AM 53.1 °F 26.1 °F 35% 30.01 in 10.0 mi East 6.9 mph - N/A   Partly Cloudy
9:51 AM 57.9 °F 25.0 °F 28% 30.02 in 10.0 mi East 5.8 mph - N/A   Partly Cloudy
10:51 AM 64.0 °F 25.0 °F 23% 30.01 in 10.0 mi SE 5.8 mph - N/A   Partly Cloudy
11:51 AM 66.9 °F 21.9 °F 18% 30.00 in 10.0 mi ESE 4.6 mph - N/A   Partly Cloudy
12:51 PM 71.1 °F 21.0 °F 15% 29.96 in 10.0 mi SE 6.9 mph - N/A   Partly Cloudy
1:51 PM 73.0 °F 21.0 °F 14% 29.92 in 10.0 mi Variable 3.5 mph - N/A   Partly Cloudy
2:51 PM 73.9 °F 19.9 °F 13% 29.91 in 10.0 mi Variable 5.8 mph - N/A   Scattered Clouds
3:51 PM 73.9 °F 17.1 °F 12% 29.89 in 10.0 mi Calm Calm - N/A   Scattered Clouds
4:51 PM 73.9 °F 12.9 °F 10% 29.88 in 10.0 mi SSE 3.5 mph - N/A   Mostly Cloudy
5:51 PM 72.0 °F 12.9 °F 10% 29.88 in 10.0 mi Calm Calm - N/A   Mostly Cloudy
6:51 PM 71.1 °F 14.0 °F 11% 29.87 in 10.0 mi NE 3.5 mph - N/A   Mostly Cloudy
7:51 PM 69.1 °F 16.0 °F 13% 29.86 in 10.0 mi NE 4.6 mph - N/A   Mostly Cloudy
8:51 PM 64.9 °F 19.0 °F 17% 29.86 in 10.0 mi Calm Calm - N/A   Scattered Clouds
9:51 PM 60.1 °F 24.1 °F 25% 29.87 in 10.0 mi East 5.8 mph - N/A   Scattered Clouds
10:51 PM 57.0 °F 26.1 °F 30% 29.86 in 10.0 mi East 5.8 mph - N/A   Scattered Clouds
11:51 PM 57.0 °F 24.1 °F 28% 29.85 in 10.0 mi ESE 5.8 mph - N/A   Scattered Clouds